ZS1OA-5 Weather Reports


Display with metric or nautical units.
time (UTC)temp
F
wind
direction
speed
MPH
gust
MPH
rain 1hr
in
rain 24hr
in
rain mn
in
humidity
%
barometer
mb
20260502181558 61 312 5.0 8.0 0.00 0.43 0.43 60 1011.8
20260502181058 61 278 7.0 7.0 0.00 0.43 0.43 60 1011.8
20260502180600 61 286 7.0 7.0 0.00 0.43 0.43 60 1011.8
20260502164058 62 306 7.0 11.0 0.00 0.43 0.43 55 1011.8
20260502163558 62 305 7.0 8.0 0.00 0.43 0.43 55 1011.8
20260502163100 62 282 9.0 9.0 0.00 0.43 0.43 55 1011.8
20260502162600 62 328 9.0 9.0 0.00 0.43 0.43 55 1011.8
20260502162100 62 294 5.0 5.0 0.00 0.43 0.43 56 1011.8
20260502161559 62 336 7.0 7.0 0.00 0.43 0.43 56 1011.8
20260502161059 62 335 7.0 7.0 0.00 0.43 0.43 56 1011.8
20260502160559 62 330 3.0 9.0 0.00 0.43 0.43 56 1011.8
20260502152059 63 320 5.0 5.0 0.00 0.43 0.43 62 1010.8
20260502151559 62 318 5.0 10.0 0.00 0.43 0.43 63 1010.8
20260502151058 62 327 7.0 8.0 0.00 0.43 0.43 63 1010.8
20260502150558 62 300 5.0 7.0 0.00 0.43 0.43 64 1010.8
20260502130559 61 308 5.0 10.0 0.00 0.43 0.43 67 1010.8
20260502123059 61 353 3.0 9.0 0.00 0.43 0.43 67 1010.8
20260502122559 61 338 7.0 8.0 0.00 0.43 0.43 67 1010.8
20260502122059 61 296 11.0 11.0 0.00 0.43 0.43 66 1010.8
20260502121718 60 353 5.0 7.0 0.00 0.43 0.43 66 1010.8
20260502121558 60 353 5.0 7.0 0.00 0.43 0.43 66 1010.8
20260502121058 60 10 5.0 5.0 0.00 0.43 0.43 66 1010.8
20260502120558 60 357 8.0 9.0 0.00 0.43 0.43 66 1010.8
20260502115602 60 334 5.0 5.0 0.00 0.43 0.43 66 1010.8
20260502115100 60 353 5.0 7.0 0.00 0.43 0.43 66 1010.8
20260502114600 60 301 9.0 10.0 0.00 0.43 0.43 66 1010.8
20260502114059 60 345 15.0 15.0 0.00 0.43 0.43 66 1010.8
20260502113559 60 327 7.0 8.0 0.00 0.43 0.43 65 1010.8
20260502113059 60 348 7.0 7.0 0.00 0.43 0.43 65 1010.8
20260502112559 60 4 5.0 10.0 0.00 0.43 0.43 65 1010.8
20260502112059 59 310 5.0 7.0 0.00 0.43 0.43 65 1010.8
20260502111559 59 285 8.0 11.0 0.00 0.43 0.43 64 1010.8
20260502111059 59 1 3.0 8.0 0.00 0.43 0.43 64 1010.8
20260502110559 59 2 3.0 7.0 0.00 0.43 0.43 64 1010.8
20260502110059 59 353 4.0 9.0 0.00 0.43 0.43 64 1010.8
20260502105559 59 258 7.0 7.0 0.00 0.43 0.43 64 1010.8
20260502105059 59 262 7.0 7.0 0.00 0.43 0.43 64 1010.8
20260502104559 59 299 3.0 8.0 0.00 0.43 0.43 64 1010.8
20260502104058 59 308 3.0 7.0 0.00 0.43 0.43 63 1010.8
20260502103600 58 318 5.0 7.0 0.00 0.43 0.43 63 1010.8
20260502103058 58 339 5.0 9.0 0.00 0.43 0.43 63 1011.8
20260502102601 58 288 3.0 7.0 0.00 0.43 0.43 62 1011.8
20260502102059 58 339 5.0 9.0 0.00 0.43 0.43 62 1011.8
20260502101559 58 336 7.0 10.0 0.00 0.43 0.43 61 1011.8
20260502101059 58 346 9.0 9.0 0.00 0.43 0.43 61 1011.8
20260502100558 58 342 7.0 7.0 0.00 0.43 0.43 61 1011.8
20260502091058 58 266 5.0 9.0 0.04 0.43 0.43 57 1010.8
20260502090600 58 350 9.0 9.0 0.04 0.43 0.43 57 1010.8
20260502071100 58 299 7.0 7.0 0.12 0.31 0.31 55 1010.8
20260502070559 58 314 8.0 8.0 0.12 0.31 0.31 54 1010.8
20260502070100 58 312 5.0 8.0 0.12 0.31 0.31 54 1010.8
20260502065604 58 313 8.0 9.0 0.12 0.31 0.31 54 1010.8
20260502065059 58 310 3.0 7.0 0.12 0.31 0.31 54 1010.8
20260502064559 58 308 8.0 8.0 0.12 0.31 0.31 54 1010.8
20260502064058 58 305 11.0 11.0 0.12 0.31 0.31 54 1010.8
20260502063558 58 338 9.0 9.0 0.12 0.31 0.31 54 1010.8
20260502063059 58 287 9.0 9.0 0.12 0.31 0.31 54 1010.8
20260502062559 58 316 7.0 7.0 0.12 0.31 0.31 53 1010.8
20260502062059 57 319 5.0 5.0 0.12 0.31 0.31 53 1010.8
20260502061559 57 319 7.0 8.0 0.00 0.20 0.20 53 1010.8
20260502061058 57 301 5.0 8.0 0.00 0.20 0.20 53 1010.8
20260502060558 57 309 7.0 7.0 0.00 0.20 0.20 53 1010.8
20260502060058 57 290 3.0 7.0 0.00 0.20 0.20 52 1009.8
20260502055558 57 280 5.0 7.0 0.00 0.20 0.20 52 1009.8
20260502055059 57 319 7.0 7.0 0.00 0.20 0.20 52 1009.8
20260502054559 57 255 3.0 5.0 0.00 0.20 0.20 52 1009.8
20260502054058 57 304 8.0 8.0 0.00 0.20 0.20 52 1009.8
20260502053600 57 297 5.0 8.0 0.00 0.20 0.20 52 1009.8
20260502053058 57 304 9.0 10.0 0.00 0.20 0.20 51 1009.8
20260502052558 57 297 5.0 9.0 0.00 0.20 0.20 51 1009.8
20260502052102 57 293 9.0 9.0 0.00 0.20 0.20 50 1009.8
20260502051600 57 317 7.0 10.0 0.00 0.20 0.20 50 1009.8
20260502051100 57 325 3.0 5.0 0.00 0.20 0.20 50 1009.8
20260502050559 57 284 7.0 7.0 0.00 0.20 0.20 50 1009.8
20260502050059 57 286 7.0 8.0 0.00 0.20 0.20 49 1009.8
20260502045559 57 320 5.0 8.0 0.00 0.20 0.20 49 1009.8
20260502045059 57 273 5.0 8.0 0.00 0.20 0.20 49 1009.8
20260502044559 57 330 3.0 9.0 0.00 0.20 0.20 49 1009.8
20260502044058 57 298 10.0 10.0 0.00 0.20 0.20 49 1009.8
20260502043558 58 300 7.0 8.0 0.00 0.20 0.20 49 1009.8
20260502043058 58 307 9.0 9.0 0.00 0.20 0.20 49 1009.8
20260502042558 58 292 7.0 11.0 0.00 0.20 0.20 49 1009.8
20260502042100 58 353 3.0 8.0 0.00 0.20 0.20 49 1009.8
20260502041600 58 289 8.0 8.0 0.00 0.20 0.20 49 1009.8
20260502041059 58 294 7.0 7.0 0.00 0.20 0.20 49 1009.8
20260502040559 58 294 5.0 11.0 0.00 0.20 0.20 49 1009.8
20260502040059 58 346 9.0 9.0 0.00 0.20 0.20 49 1009.8
20260502035559 58 303 3.0 13.0 0.00 0.20 0.20 49 1009.8
20260502035059 58 306 3.0 3.0 0.20 0.20 0.20 49 1009.8
20260502034600 58 301 11.0 11.0 0.20 0.20 0.20 49 1008.8
20260502034059 58 333 5.0 7.0 0.20 0.20 0.20 49 1008.8
20260502033559 58 338 3.0 10.0 0.20 0.20 0.20 48 1008.8
20260502033059 58 322 5.0 8.0 0.20 0.20 0.20 48 1008.8
20260502032559 58 19 7.0 10.0 0.20 0.20 0.20 48 1008.8
20260502032059 58 297 3.0 9.0 0.20 0.20 0.20 47 1008.8
20260502031559 58 303 5.0 10.0 0.20 0.20 0.20 47 1008.8
20260502031059 58 294 5.0 5.0 0.20 0.20 0.20 47 1008.8
20260502030559 58 288 5.0 7.0 0.20 0.20 0.20 46 1008.8
20260502030059 58 308 8.0 8.0 0.20 0.20 0.20 46 1008.8
20260502025559 58 302 5.0 7.0 0.20 0.20 0.20 45 1008.8
20260502025059 58 287 9.0 11.0 0.00 0.00 0.00 45 1008.8
20260502024604 58 311 8.0 8.0 0.00 0.00 0.00 45 1008.8
20260502024058 58 294 5.0 7.0 0.00 0.00 0.00 44 1008.8
20260502023558 58 313 8.0 11.0 0.00 0.00 0.00 43 1008.8
20260502023059 57 279 8.0 8.0 0.00 0.00 0.00 43 1008.8
20260502022558 57 306 8.0 8.0 0.00 0.00 0.00 42 1008.8
20260502022100 57 313 5.0 9.0 0.00 0.00 0.00 40 1008.8
20260502021600 57 294 9.0 11.0 0.00 0.00 0.00 39 1009.8
20260502020559 57 305 5.0 5.0 0.00 0.00 0.00 39 1009.8
20260502020100 57 311 4.0 5.0 0.00 0.00 0.00 38 1009.8
20260502015601 57 308 3.0 5.0 0.00 0.00 0.00 38 1009.8
20260502015059 57 325 4.0 5.0 0.00 0.00 0.00 38 1009.8
20260502014559 57 348 4.0 5.0 0.00 0.00 0.00 37 1009.8
20260502014059 57 357 5.0 5.0 0.00 0.00 0.00 37 1009.8
20260502013600 57 331 3.0 8.0 0.00 0.00 0.00 36 1009.8